TimeEDT,TemperatureF,Dew PointF,Humidity,Sea Level PressureIn,VisibilityMPH,Wind Direction,Wind SpeedMPH,Gust SpeedMPH,PrecipitationIn,Events,Conditions,WindDirDegrees,DateUTC
12:47 AM,62.6,60.8,94,29.74,10.0,SW,9.2,-,N/A,,Scattered Clouds,230,2013-10-18 04:47:00
12:56 AM,63.0,60.1,90,29.75,10.0,SW,9.2,-,0.00,Rain,Light Rain,220,2013-10-18 04:56:00
1:34 AM,62.6,60.8,94,29.73,10.0,SSW,3.5,-,0.00,,Overcast,200,2013-10-18 05:34:00
1:41 AM,62.6,60.8,94,29.73,10.0,SSW,4.6,-,0.00,,Overcast,200,2013-10-18 05:41:00
1:52 AM,62.6,60.8,94,29.73,10.0,SSW,8.1,-,0.00,,Overcast,200,2013-10-18 05:52:00
1:56 AM,63.0,61.0,93,29.73,10.0,SSW,8.1,-,0.00,,Overcast,200,2013-10-18 05:56:00
2:56 AM,63.0,61.0,93,29.71,9.0,SSW,8.1,-,N/A,,Overcast,200,2013-10-18 06:56:00
3:56 AM,63.0,62.1,97,29.68,7.0,SSW,6.9,-,0.01,,Overcast,200,2013-10-18 07:56:00
4:06 AM,62.6,62.6,100,29.68,8.0,SSW,6.9,-,N/A,,Overcast,200,2013-10-18 08:06:00
4:15 AM,64.4,62.6,94,29.67,9.0,South,6.9,-,0.00,Rain,Light Rain,190,2013-10-18 08:15:00
4:56 AM,64.0,62.1,93,29.68,10.0,SSW,10.4,19.6,0.00,Rain,Light Rain,200,2013-10-18 08:56:00
5:10 AM,64.4,62.6,94,29.66,8.0,SSW,11.5,-,0.00,Rain,Light Rain,200,2013-10-18 09:10:00
5:27 AM,64.4,62.6,94,29.66,10.0,SSW,8.1,-,0.00,,Overcast,210,2013-10-18 09:27:00
5:56 AM,64.0,62.1,93,29.65,10.0,SSW,10.4,-,0.00,,Overcast,210,2013-10-18 09:56:00
6:21 AM,64.4,62.6,94,29.64,10.0,SSW,13.8,-,N/A,,Overcast,210,2013-10-18 10:21:00
6:56 AM,64.9,62.1,90,29.65,10.0,WSW,16.1,-,N/A,,Overcast,240,2013-10-18 10:56:00
7:56 AM,64.9,62.1,90,29.67,9.0,West,10.4,-,N/A,,Overcast,260,2013-10-18 11:56:00
8:56 AM,66.9,61.0,81,29.69,10.0,West,10.4,17.3,N/A,,Scattered Clouds,260,2013-10-18 12:56:00
9:23 AM,66.2,59.0,78,29.70,10.0,WNW,12.7,20.7,N/A,,Mostly Cloudy,290,2013-10-18 13:23:00
9:41 AM,68.0,57.2,68,29.71,10.0,WNW,12.7,-,N/A,,Scattered Clouds,290,2013-10-18 13:41:00
9:56 AM,68.0,55.9,65,29.71,10.0,West,12.7,-,N/A,,Partly Cloudy,280,2013-10-18 13:56:00
10:56 AM,68.0,51.1,55,29.74,10.0,WNW,12.7,-,N/A,,Clear,290,2013-10-18 14:56:00
11:56 AM,70.0,48.0,46,29.74,10.0,West,10.4,-,N/A,,Clear,280,2013-10-18 15:56:00
12:56 PM,71.1,46.9,42,29.73,10.0,West,12.7,18.4,N/A,,Partly Cloudy,270,2013-10-18 16:56:00
1:56 PM,71.1,46.9,42,29.74,10.0,WSW,12.7,18.4,N/A,,Clear,250,2013-10-18 17:56:00
2:56 PM,70.0,45.0,41,29.75,10.0,West,13.8,23.0,N/A,,Clear,260,2013-10-18 18:56:00
3:56 PM,69.1,46.0,44,29.76,10.0,West,13.8,-,N/A,,Clear,260,2013-10-18 19:56:00
4:56 PM,68.0,46.0,45,29.78,10.0,West,9.2,-,N/A,,Clear,260,2013-10-18 20:56:00
5:56 PM,63.0,51.1,65,29.81,10.0,WSW,9.2,-,N/A,,Clear,240,2013-10-18 21:56:00
6:56 PM,61.0,52.0,72,29.83,10.0,West,3.5,-,N/A,,Clear,270,2013-10-18 22:56:00
7:56 PM,57.9,50.0,75,29.86,10.0,Calm,Calm,-,N/A,,Clear,0,2013-10-18 23:56:00
8:56 PM,57.0,45.0,64,29.87,10.0,West,3.5,-,N/A,,Clear,270,2013-10-19 00:56:00
9:56 PM,54.0,44.1,69,29.89,10.0,Calm,Calm,-,N/A,,Clear,0,2013-10-19 01:56:00
10:56 PM,50.0,43.0,77,29.90,10.0,Calm,Calm,-,N/A,,Clear,0,2013-10-19 02:56:00
11:56 PM,53.1,46.0,77,29.92,10.0,WNW,4.6,-,N/A,,Clear,300,2013-10-19 03:56:00